User: anonymous   Login
Location: Lalanga
(4.5882°N, 32.9072°E)
Time: 20:24:22
(UTC+00:00)
Language:

Cosmos 2151 - Orbit

View from above orbital plane
View from above orbital plane
View from above satellite
View from above satellite

Ground track
Ground track

The orbit data is extracted from the following two-line orbital elements,

1 21422U 91042A   20090.79694419 +.00000128 +00000-0 +10048-4 0  9995
2 21422 082.5035 357.8366 0015275 131.5523 228.7009 14.92117447539155
Epoch (UTC): 30 March 2020 19:07:35
Eccentricity: 0.0015275
inclination: 82.5035°
perigee height: 580 km
apogee height: 602 km
right ascension of ascending node: 357.8366°
argument of perigee: 131.5523°
revolutions per day: 14.92117447
mean anomaly at epoch: 228.7009°
orbit number at epoch: 53915

The dashed part of the orbit path shows where the satellite is in the earth's shadow,  

DLR